Hourly Data Report for October 25, 2014

All times are specified in Local Standard Time (LST). Add 1 hour to adjust for Daylight Saving Time where and when it is observed.

TORONTO INTL A
ONTARIO

43°40'36.000" N
79°37'50.000" W
173.40 m
6158731
71624
YYZ

Download Data

Hourly Data (October 2014)
Hourly Data Report for October 25, 2014
Temp Definition
°C
Dew Point Temp Definition
°C
Rel Hum Definition
%
Wind Dir Definition
10's deg

Wind Spd Definition
km/h
Visibility Definition
km
Stn Press Definition
kPa
Hmdx Definition


Wind Chill Definition


Weather Definition


TIME
00:00 Legend Double Dagger 11.3 6.7 73 21 4 24.1 99.20     LegendNANA
01:00 Legend Double Dagger 11.3 6.5 72 16 7 24.1 99.12     Mostly Cloudy
02:00 Legend Double Dagger 11.2 6.4 72 21 8 24.1 99.09     LegendNANA
03:00 Legend Double Dagger 10.0 6.0 76 24 11 24.1 99.01     LegendNANA
04:00 Legend Double Dagger 9.3 6.2 81 23 13 24.1 98.95     Mostly Cloudy
05:00 Legend Double Dagger 9.7 6.6 81 21 12 24.1 98.88     LegendNANA
06:00 Legend Double Dagger 9.2 6.7 84 22 4 16.1 98.85     LegendNANA
07:00 Legend Double Dagger 9.1 7.1 87 21 11 12.9 98.80     Mostly Cloudy
08:00 Legend Double Dagger 10.7 8.1 84 18 10 16.1 98.72     LegendNANA
09:00 Legend Double Dagger 13.6 9.3 75 21 18 16.1 98.55     LegendNANA
10:00 Legend Double Dagger 15.0 9.2 68 24 27 19.3 98.45     Mostly Cloudy
11:00 Legend Double Dagger 15.5 9.0 65 23 31 19.3 98.34     LegendNANA
12:00 Legend Double Dagger 15.4 9.4 67 26 37 19.3 98.28     LegendNANA
13:00 Legend Double Dagger 13.7 9.6 76 28 32 12.9 98.29     Cloudy
14:00 Legend Double Dagger 14.0 9.9 76 26 21 19.3 98.23     LegendNANA
15:00 Legend Double Dagger 16.1 8.9 62 27 29 24.1 98.17     LegendNANA
16:00 Legend Double Dagger 16.2 6.1 51 28 32 24.1 98.20     Mostly Cloudy
17:00 Legend Double Dagger 14.9 5.5 53 28 26 24.1 98.20     LegendNANA
18:00 Legend Double Dagger 12.5 6.2 65 24 15 24.1 98.17     LegendNANA
19:00 Legend Double Dagger 13.4 6.6 63 32 37 24.1 98.25     Mainly Clear
20:00 Legend Double Dagger 11.7 4.2 60 32 28 24.1 98.31     LegendNANA
21:00 Legend Double Dagger 10.7 4.0 63 30 23 24.1 98.33     LegendNANA
22:00 Legend Double Dagger 8.5 4.0 73 28 15 24.1 98.33     Mainly Clear
23:00 Legend Double Dagger 7.5 3.8 77 27 15 24.1 98.33     LegendNANA

Notes on Data Quality.

Legend

  • E = Estimated
  • M = Missing
  • NA = Not Available
  • ‡ = Partner data that is not subject to review by the National Climate Archives
Date modified: